[[{"header":{"parameterUnit":"m.s-1","parameterCategory":2,"la1":30.2991,"la2":30.254,"lo1":-89.0895,"lo2":-89.0444,"dx":0.0017,"dy":0.0017,"nx":28,"ny":28,"refTime":"2023-01-07T03:00:00:Z","depth":"0","parameterNumber":2,"parameterNumberName":"U-component_of_CURRENTS"},"data":[0,0,0,0,0,0,0,0,0,0,0,0,0,0,0,0,0,0,0,0,0,0,0,0,0,0,0,0,0,0,0,0,0,0,0,0,0,0,0,0,0,0,0,0,0,0,0,0,0,0,0,0,0,0,0,0,0,0,-0.2061,-0.2061,0,-0.2111,-0.2112,-0.2112,-0.217,-0.2171,-0.2172,-0.2173,-0.2446,-0.2453,-0.2459,0,0,0,0,0,0,0,0,0,0,0,0,0,-0.2023,-0.2024,-0.2061,-0.2061,-0.2062,-0.2111,-0.2112,-0.2113,-0.217,-0.2171,-0.2172,-0.2173,-0.2444,-0.2452,-0.246,0,0,0,0,0,0,0,0,0,0,0,0,0,-0.2055,-0.2024,-0.206,-0.2095,-0.2099,-0.2111,-0.2112,-0.2113,-0.217,-0.2171,-0.2172,-0.2173,-0.2441,-0.2451,-0.2461,-0.25,0,0,-0.2491,-0.2495,0,0,0,0,0,0,0,0,-0.2053,-0.2056,-0.209,-0.2093,-0.2097,-0.2134,-0.2199,-0.2253,-0.217,-0.2145,-0.2173,-0.2174,-0.2361,-0.2377,-0.2383,-0.2513,-0.2524,-0.2492,-0.2498,-0.2502,-0.2505,0,0,0,0,0,0,0,-0.205,-0.2054,-0.2082,-0.209,-0.2094,-0.2111,-0.2117,-0.2209,-0.2251,-0.2147,-0.2151,-0.2154,-0.2365,-0.2373,-0.2391,-0.2528,-0.2492,-0.25,-0.2507,-0.251,-0.261,-0.2607,0,0,0,0,0,0,-0.204,-0.2052,-0.208,-0.2083,-0.2075,-0.2111,-0.2118,-0.2122,-0.2245,-0.2263,-0.2153,-0.2156,-0.2356,-0.2379,-0.2401,-0.2409,-0.2502,-0.2511,-0.2517,-0.2613,-0.2609,-0.2606,0,0,0,0,0,0,-0.2039,-0.2042,-0.2078,-0.2068,-0.2073,-0.211,-0.2115,-0.2123,-0.2132,-0.2247,-0.227,-0.2155,-0.2358,-0.2387,-0.2463,-0.2422,-0.2516,-0.2525,-0.2617,-0.2612,-0.2607,-0.2455,0,0,0,0,0,0,-0.2037,-0.2041,-0.2038,-0.2067,-0.2074,-0.2076,-0.2114,-0.2123,-0.2132,-0.2137,-0.2257,-0.2283,-0.2361,-0.2447,-0.2472,-0.2437,-0.2533,-0.2621,-0.2615,-0.2609,-0.2464,-0.2445,-0.2429,0,0,0,0,0,-0.2036,-0.2025,-0.2037,-0.2041,-0.2069,-0.2074,-0.2079,-0.211,-0.2131,-0.2125,-0.2198,-0.2279,-0.2424,-0.2454,-0.2484,-0.2451,-0.2624,-0.2617,-0.2609,-0.2472,-0.2449,-0.243,0,0,0,0,0,0,-0.2009,-0.2031,-0.2045,-0.2042,-0.2053,-0.2084,-0.208,-0.2102,-0.215,-0.2163,-0.2271,-0.2301,-0.2338,-0.2411,-0.244,-0.245,-0.2525,-0.2523,-0.2409,-0.2389,-0.2372,-0.2401,-0.2541,0,0,0,0,0,-0.2,-0.1995,-0.2019,-0.2014,-0.2017,-0.2046,-0.2052,-0.2072,-0.2117,-0.2137,-0.2209,-0.2278,-0.2327,-0.2374,-0.2431,-0.247,-0.2508,-0.2453,-0.2435,-0.242,-0.2457,-0.245,-0.2437,-0.2581,-0.2581,-0.2582,0,0,-0.1988,-0.1997,-0.1996,-0.2007,-0.2019,-0.203,-0.2053,-0.2054,-0.2066,-0.2166,-0.2198,-0.2232,-0.232,-0.2339,-0.2361,-0.2404,-0.2381,-0.2411,-0.2398,-0.2445,-0.2441,-0.2428,-0.2416,-0.2576,-0.2577,-0.2578,0,0,-0.1966,-0.1968,-0.1965,-0.1974,-0.1985,-0.2002,-0.1999,-0.202,-0.2029,-0.2062,-0.2108,-0.2114,-0.2219,-0.224,-0.2276,-0.2202,-0.2284,-0.2205,-0.2163,-0.2153,-0.2142,-0.2134,-0.2097,-0.2087,-0.2203,-0.2203,-0.2203,0,-0.1955,-0.196,-0.1961,-0.1968,-0.1979,-0.199,-0.2,-0.2005,-0.2043,-0.2054,-0.2059,-0.2122,-0.2169,-0.2193,-0.2144,-0.2167,-0.2178,-0.2239,-0.2133,-0.2126,-0.212,-0.2085,-0.2076,-0.2195,-0.2196,-0.2196,-0.2197,0,-0.1943,-0.195,-0.1944,-0.1962,-0.1967,-0.1969,-0.1984,-0.1981,-0.1987,-0.1999,-0.2001,-0.2024,-0.2073,-0.2039,-0.2084,-0.2046,-0.2068,-0.2104,-0.2193,-0.2097,-0.2065,-0.2057,-0.2183,-0.2186,-0.2188,-0.219,0,0,-0.1913,-0.1936,-0.1935,-0.195,-0.1968,-0.1971,-0.1977,-0.1989,-0.2,-0.1983,-0.1992,-0.1981,-0.1978,-0.2014,-0.2021,-0.1992,-0.19,-0.2029,-0.2032,-0.2005,-0.1863,-0.1773,-0.1758,-0.1927,-0.1926,-0.1926,-0.1835,0,-0.1909,-0.1923,-0.1938,-0.1953,-0.1962,-0.198,-0.199,-0.1998,-0.2,-0.2002,-0.1979,-0.1991,-0.1975,-0.1976,-0.194,-0.1937,-0.1887,-0.1921,-0.1955,-0.1955,-0.1898,-0.1749,-0.1665,-0.157,-0.1829,-0.1828,-0.1827,0,-0.1893,-0.1909,-0.1926,-0.196,-0.1966,-0.1976,-0.1997,-0.2008,-0.2014,-0.2017,-0.2008,-0.2013,-0.1971,-0.1961,-0.1898,-0.1929,-0.1889,-0.1861,-0.1857,-0.1844,-0.1854,-0.1721,-0.1549,-0.1545,-0.1818,-0.1819,-0.1819,0,-0.1861,-0.1897,-0.191,-0.1922,-0.1961,-0.197,-0.1987,-0.2004,-0.2012,-0.2023,-0.2027,-0.2006,-0.1983,-0.1944,-0.1869,-0.1898,-0.1788,-0.1827,-0.1698,-0.1691,-0.1665,-0.1657,-0.1517,-0.1769,-0.1769,-0.177,-0.177,0,-0.1841,-0.1848,-0.1896,-0.19,-0.1911,-0.1953,-0.196,-0.1979,-0.2008,-0.2007,-0.2027,-0.1999,-0.198,-0.1918,-0.1866,-0.1737,-0.1781,-0.1669,-0.1656,-0.1598,-0.1585,-0.1625,-0.1667,-0.1766,-0.1767,-0.1768,-0.1768,0,-0.1778,-0.1818,-0.1827,-0.1876,-0.1888,-0.1888,-0.1929,-0.1948,-0.1982,-0.1983,-0.1988,-0.1985,-0.1897,-0.1846,-0.1761,-0.1709,-0.1576,-0.1558,-0.1469,-0.1446,-0.1336,-0.1374,-0.1287,-0.125,-0.1415,-0.1412,-0.141,0,-0.1739,-0.1741,-0.1782,-0.1791,-0.1806,-0.1825,-0.1849,-0.1909,-0.1941,-0.1947,-0.195,-0.1881,-0.1786,-0.162,-0.1523,-0.1396,-0.1433,-0.127,-0.1304,-0.1286,-0.132,-0.137,-0.135,-0.1185,-0.1181,-0.1178,-0.1175,0,-0.1656,-0.1672,-0.1682,-0.1706,-0.1731,-0.1758,-0.1803,-0.1811,-0.188,-0.1853,-0.1794,-0.1708,-0.1573,-0.1386,-0.1247,-0.1174,-0.1246,-0.1197,-0.1213,-0.1143,-0.1159,-0.1132,-0.1283,-0.1146,-0.1149,-0.1151,-0.1152,-0.1154,-0.1577,-0.1563,-0.1589,-0.1606,-0.1646,-0.1673,-0.1593,-0.1641,-0.1603,-0.1465,-0.1568,-0.1319,-0.13,-0.107,-0.1006,-0.0906,-0.0995,-0.0897,-0.0944,-0.0996,-0.0955,-0.1015,-0.0849,-0.085,-0.0851,-0.0852,-0.0853,0,-0.147,-0.1481,-0.1496,-0.1492,-0.1482,-0.1545,-0.1545,-0.1418,-0.1253,-0.1152,-0.102,-0.0879,-0.0777,-0.0756,-0.073,-0.0686,-0.0701,-0.0688,-0.0761,-0.0754,-0.0819,-0.0803,-0.0578,-0.0578,-0.0578,-0.0578,-0.0578,-0.0578,-0.1413,-0.1393,-0.1415,-0.1347,-0.1322,-0.1201,-0.1134,-0.0964,-0.0831,-0.0514,-0.0303,-0.025,-0.0439,-0.0635,-0.0649,-0.0618,-0.0645,-0.0606,-0.0659,-0.0739,-0.0764,-0.0788,-0.078,-0.0554,-0.0554,-0.0556,-0.0556,-0.0557]},{"header":{"parameterUnit":"m.s-1","parameterCategory":2,"la1":30.2991,"la2":30.254,"lo1":-89.0895,"lo2":-89.0444,"dx":0.0017,"dy":0.0017,"nx":28,"ny":28,"refTime":"2023-01-07T03:00:00:Z","depth":"0","parameterNumber":3,"parameterNumberName":"V-component_of_CURRENTS"},"data":[0,0,0,0,0,0,0,0,0,0,0,0,0,0,0,0,0,0,0,0,0,0,0,0,0,0,0,0,0,0,0,0,0,0,0,0,0,0,0,0,0,0,0,0,0,0,0,0,0,0,0,0,0,0,0,0,0,0,-0.0426,-0.0425,0,-0.0347,-0.0346,-0.0345,-0.0265,-0.0264,-0.0263,-0.0262,0.006,0.0067,0.0075,0,0,0,0,0,0,0,0,0,0,0,0,0,-0.0447,-0.0448,-0.0426,-0.0425,-0.0424,-0.0347,-0.0346,-0.0345,-0.0265,-0.0264,-0.0262,-0.0261,0.0057,0.0066,0.0075,0,0,0,0,0,0,0,0,0,0,0,0,0,-0.041,-0.0448,-0.0426,-0.0375,-0.037,-0.0347,-0.0346,-0.0344,-0.0265,-0.0264,-0.0262,-0.0261,0.0054,0.0065,0.0076,0.0115,0,0,0.0111,0.0116,0,0,0,0,0,0,0,0,-0.0412,-0.0409,-0.0384,-0.0379,-0.0373,-0.0314,-0.0236,-0.0179,-0.0266,-0.0305,-0.0262,-0.026,-0.0044,-0.0025,-0.0016,0.013,0.0144,0.0112,0.0119,0.0124,0.0127,0,0,0,0,0,0,0,-0.0415,-0.0412,-0.0394,-0.0383,-0.0376,-0.0336,-0.0329,-0.0225,-0.0179,-0.0301,-0.0295,-0.0288,-0.0039,-0.0028,-0.0007,0.0149,0.0112,0.0122,0.0129,0.0133,0.0347,0.0346,0,0,0,0,0,0,-0.0431,-0.0415,-0.0397,-0.0392,-0.0389,-0.0337,-0.0329,-0.0334,-0.0186,-0.0164,-0.0289,-0.0284,-0.0048,-0.0021,0.0005,0.0059,0.0124,0.0135,0.0141,0.0348,0.0347,0.0345,0,0,0,0,0,0,-0.0432,-0.0431,-0.04,-0.0401,-0.0394,-0.0339,-0.0344,-0.0334,-0.0317,-0.0179,-0.0152,-0.0283,-0.0046,-0.0011,0.0071,0.0073,0.014,0.015,0.0349,0.0348,0.0346,0.0171,0,0,0,0,0,0,-0.0433,-0.0432,-0.0437,-0.0403,-0.0395,-0.0389,-0.0346,-0.0333,-0.0315,-0.0308,-0.0164,-0.0134,-0.0042,0.0053,0.0082,0.009,0.0159,0.0351,0.0349,0.0347,0.0178,0.0163,0.0151,0,0,0,0,0,-0.0434,-0.0447,-0.0439,-0.0436,-0.0406,-0.039,-0.0382,-0.0336,-0.0317,-0.0315,-0.0238,-0.0138,0.0061,0.006,0.0095,0.0107,0.0352,0.0349,0.0347,0.0184,0.0166,0.0151,0,0,0,0,0,0,-0.0453,-0.0439,-0.0429,-0.0435,-0.0417,-0.0376,-0.0368,-0.0346,-0.029,-0.0275,-0.0153,-0.0118,-0.005,0.0048,0.0044,0.0159,0.0225,0.0229,0.0089,0.0074,0.006,0.0061,0.0168,0,0,0,0,0,-0.0466,-0.0474,-0.0451,-0.0457,-0.0451,-0.0416,-0.0402,-0.0378,-0.0326,-0.0302,-0.0213,-0.0114,-0.0036,0.0031,0.0114,0.0188,0.0265,0.0218,0.0204,0.0191,0.0214,0.029,0.0286,0.0337,0.0337,0.0337,0,0,-0.0473,-0.0468,-0.047,-0.0462,-0.0443,-0.0444,-0.0403,-0.0391,-0.0385,-0.0269,-0.0229,-0.0161,-0.0034,0.0026,0.007,0.0116,0.0209,0.0188,0.0177,0.0207,0.0287,0.0282,0.0278,0.0335,0.0335,0.0336,0,0,-0.0499,-0.0492,-0.0509,-0.0503,-0.0487,-0.0465,-0.0468,-0.0437,-0.0413,-0.0376,-0.0305,-0.0246,-0.0111,-0.0038,0.0023,-0.0008,0.0117,0.0023,-0.0017,0.0054,0.0051,0.0049,0.0099,0.0104,0.0035,0.0035,0.0035,0,-0.0508,-0.0532,-0.0509,-0.0526,-0.0523,-0.0481,-0.0497,-0.0471,-0.042,-0.0393,-0.0375,-0.023,-0.0139,-0.0056,-0.0081,-0.0034,0.0019,0.0029,0.0035,0.0036,0.0037,0.009,0.0097,0.0026,0.0027,0.0028,0.0029,0,-0.0549,-0.0567,-0.0576,-0.0586,-0.0576,-0.0585,-0.0552,-0.0535,-0.0505,-0.0469,-0.0405,-0.0317,-0.0215,-0.0198,-0.0143,-0.009,-0.0055,-0.0012,0.0072,0.0021,0.008,0.009,0.0014,0.0017,0.0019,0.0022,0,0,-0.0576,-0.0603,-0.0606,-0.0619,-0.0613,-0.0606,-0.0597,-0.0566,-0.0542,-0.0498,-0.0455,-0.0374,-0.0325,-0.0255,-0.0189,-0.0133,-0.0113,-0.0077,-0.0069,-0.0036,0.003,0.0067,0.0083,-0.0074,-0.0072,-0.007,0.0052,0,-0.0617,-0.0667,-0.0662,-0.0692,-0.0711,-0.0674,-0.0662,-0.0623,-0.0577,-0.0522,-0.0437,-0.0369,-0.0344,-0.0299,-0.0249,-0.0129,-0.0086,-0.015,0.0086,0.0093,0.0125,0.0096,0.0133,0.0248,0.0063,0.0065,0.0066,0,-0.066,-0.0688,-0.0736,-0.0743,-0.0744,-0.0748,-0.0708,-0.069,-0.0603,-0.056,-0.0487,-0.041,-0.0316,-0.0295,-0.013,-0.0173,-0.0088,-0.0013,-0.0005,0.0112,0.0152,0.028,0.0275,0.0364,0.0084,0.0082,0.0081,0,-0.0691,-0.0731,-0.0772,-0.078,-0.0783,-0.078,-0.0764,-0.07,-0.0662,-0.0571,-0.0515,-0.0413,-0.0319,-0.022,-0.0072,-0.0094,0.0112,0.0113,0.0219,0.0222,0.0348,0.0359,0.0461,0.0219,0.0219,0.0218,0.0218,0,-0.0739,-0.0766,-0.079,-0.0814,-0.083,-0.0813,-0.0796,-0.0759,-0.0681,-0.0592,-0.053,-0.0424,-0.0293,-0.0155,-0.0062,0.0122,0.0129,0.022,0.0265,0.0282,0.0286,0.0449,0.0477,0.0223,0.0222,0.0221,0.022,0,-0.0765,-0.0792,-0.0832,-0.0851,-0.0852,-0.0855,-0.0818,-0.0788,-0.0717,-0.0594,-0.0556,-0.0404,-0.0221,-0.0101,0.01,0.0169,0.0388,0.0375,0.0372,0.0414,0.0568,0.0584,0.0766,0.0842,0.0502,0.0504,0.0506,0,-0.0784,-0.0815,-0.0854,-0.087,-0.0882,-0.0881,-0.0865,-0.081,-0.0734,-0.055,-0.046,-0.0288,-0.0103,0.0158,0.0289,0.045,0.0504,0.0569,0.0531,0.0593,0.0644,0.0642,0.0692,0.0614,0.0616,0.0618,0.062,0,-0.0812,-0.0828,-0.0858,-0.0892,-0.0899,-0.0856,-0.0802,-0.0726,-0.0593,-0.0461,-0.0192,-0.0047,0.015,0.036,0.0494,0.0581,0.0641,0.0612,0.0699,0.0763,0.0751,0.084,0.0495,0.0636,0.0635,0.0633,0.0632,0.0632,-0.0815,-0.0841,-0.0878,-0.089,-0.0881,-0.0747,-0.0637,-0.0511,-0.031,0.0014,0.009,0.0396,0.047,0.067,0.0739,0.0847,0.0805,0.0895,0.0914,0.091,0.0972,0.0645,0.0819,0.0818,0.0818,0.0818,0.0817,0,-0.0811,-0.0833,-0.0864,-0.081,-0.0712,-0.0722,-0.0534,-0.036,-0.0033,0.0236,0.0531,0.0876,0.0975,0.0997,0.1048,0.114,0.1154,0.1187,0.1198,0.1241,0.0988,0.0981,0.117,0.117,0.117,0.117,0.1169,0.1169,-0.0812,-0.0837,-0.0843,-0.0651,-0.0566,-0.0352,-0.0193,0.0041,0.0267,0.0758,0.1075,0.1285,0.1291,0.1299,0.1356,0.1381,0.1491,0.1473,0.1533,0.1348,0.1322,0.1297,0.1297,0.155,0.155,0.179,0.1792,0.1794]}],[{"header":{"parameterUnit":"m.s-1","parameterCategory":2,"la1":30.2991,"la2":30.254,"lo1":-89.0895,"lo2":-89.0444,"dx":0.0017,"dy":0.0017,"nx":28,"ny":28,"refTime":"2023-01-07T03:00:00:Z","depth":"2","parameterNumber":2,"parameterNumberName":"U-component_of_CURRENTS"},"data":[0,0,0,0,0,0,0,0,0,0,0,0,0,0,0,0,0,0,0,0,0,0,0,0,0,0,0,0,0,0,0,0,0,0,0,0,0,0,0,0,0,0,0,0,0,0,0,0,0,0,0,0,0,0,0,0,0,0,-0.1886,-0.1887,0,-0.1938,-0.1938,-0.1939,-0.1988,-0.1989,-0.199,-0.199,-0.2148,-0.2151,-0.2155,0,0,0,0,0,0,0,0,0,0,0,0,0,-0.1834,-0.1835,-0.1886,-0.1887,-0.1887,-0.1937,-0.1938,-0.1939,-0.1988,-0.1989,-0.199,-0.1991,-0.2146,-0.2151,-0.2155,0,0,0,0,0,0,0,0,0,0,0,0,0,-0.1868,-0.1835,-0.1886,-0.1919,-0.1922,-0.1937,-0.1938,-0.1939,-0.1988,-0.1989,-0.199,-0.1991,-0.2145,-0.215,-0.2155,-0.2168,0,0,-0.2172,-0.2174,0,0,0,0,0,0,0,0,-0.1866,-0.1869,-0.1913,-0.1916,-0.192,-0.1958,-0.1977,-0.2021,-0.1988,-0.1962,-0.199,-0.1992,-0.2094,-0.2103,-0.2108,-0.2175,-0.2182,-0.2172,-0.2175,-0.2178,-0.2179,0,0,0,0,0,0,0,-0.1863,-0.1867,-0.1906,-0.1914,-0.1918,-0.1932,-0.1938,-0.1985,-0.2023,-0.1965,-0.1969,-0.1975,-0.2096,-0.2103,-0.2113,-0.2184,-0.2172,-0.2177,-0.218,-0.2182,-0.2236,-0.2234,0,0,0,0,0,0,-0.1857,-0.1865,-0.1904,-0.1908,-0.1895,-0.1932,-0.1938,-0.1944,-0.2021,-0.2032,-0.1974,-0.1977,-0.2093,-0.2106,-0.2119,-0.2116,-0.2178,-0.2183,-0.2186,-0.2238,-0.2236,-0.2234,0,0,0,0,0,0,-0.1855,-0.1859,-0.1902,-0.1888,-0.1895,-0.1932,-0.1938,-0.1945,-0.1956,-0.2026,-0.204,-0.1979,-0.2095,-0.2111,-0.213,-0.2124,-0.2185,-0.219,-0.224,-0.2237,-0.2235,-0.2125,0,0,0,0,0,0,-0.1853,-0.1859,-0.1859,-0.1887,-0.1895,-0.1905,-0.1937,-0.1945,-0.1959,-0.1963,-0.2035,-0.205,-0.2097,-0.2121,-0.2135,-0.2132,-0.2194,-0.2242,-0.2239,-0.2236,-0.2131,-0.2119,-0.2109,0,0,0,0,0,-0.1851,-0.1846,-0.1859,-0.1863,-0.1895,-0.1905,-0.1909,-0.1939,-0.1958,-0.1954,-0.1983,-0.2048,-0.2111,-0.2123,-0.214,-0.2139,-0.2244,-0.224,-0.2236,-0.2136,-0.2122,-0.2109,0,0,0,0,0,0,-0.1825,-0.1852,-0.1866,-0.187,-0.1884,-0.1913,-0.1913,-0.1934,-0.1953,-0.196,-0.2024,-0.2039,-0.2051,-0.2103,-0.2115,-0.2141,-0.219,-0.2189,-0.2108,-0.2096,-0.2085,-0.2104,-0.2198,0,0,0,0,0,-0.1818,-0.182,-0.1847,-0.1847,-0.1852,-0.1881,-0.1889,-0.1909,-0.1931,-0.1941,-0.1984,-0.2024,-0.2046,-0.2076,-0.2104,-0.2126,-0.2148,-0.2135,-0.2124,-0.2114,-0.2138,-0.2132,-0.2122,-0.2221,-0.2221,-0.2221,0,0,-0.1809,-0.1822,-0.1824,-0.1841,-0.1854,-0.1866,-0.1888,-0.1895,-0.1907,-0.1957,-0.1974,-0.1986,-0.2038,-0.2044,-0.2058,-0.2093,-0.2086,-0.2109,-0.2101,-0.2131,-0.2127,-0.2117,-0.2109,-0.2218,-0.2219,-0.2219,0,0,-0.1793,-0.18,-0.1801,-0.1812,-0.1829,-0.1845,-0.1846,-0.1869,-0.1878,-0.1888,-0.1912,-0.1905,-0.197,-0.1981,-0.2003,-0.1951,-0.2017,-0.1972,-0.1952,-0.1943,-0.1935,-0.1929,-0.1897,-0.1889,-0.198,-0.198,-0.198,0,-0.1784,-0.1794,-0.1801,-0.1809,-0.182,-0.1836,-0.1847,-0.1853,-0.1877,-0.1883,-0.1886,-0.1916,-0.1939,-0.1948,-0.1917,-0.1929,-0.1935,-0.1997,-0.1929,-0.1924,-0.1919,-0.1888,-0.1881,-0.1974,-0.1975,-0.1975,-0.1976,0,-0.1778,-0.1788,-0.1784,-0.1804,-0.1812,-0.1816,-0.1833,-0.1835,-0.1844,-0.1857,-0.1852,-0.1849,-0.1879,-0.1864,-0.188,-0.1861,-0.1874,-0.1901,-0.1963,-0.1903,-0.1873,-0.1867,-0.1966,-0.1968,-0.197,-0.1971,0,0,-0.1754,-0.1779,-0.1779,-0.1793,-0.1812,-0.1818,-0.1826,-0.184,-0.1851,-0.1842,-0.1852,-0.183,-0.1828,-0.1849,-0.1849,-0.1831,-0.1759,-0.1855,-0.1858,-0.1825,-0.1727,-0.1646,-0.1632,-0.1782,-0.1781,-0.1781,-0.1702,0,-0.1751,-0.1767,-0.1782,-0.1797,-0.1807,-0.1824,-0.1834,-0.1846,-0.1851,-0.1857,-0.1838,-0.1841,-0.1826,-0.1824,-0.18,-0.1783,-0.1749,-0.1778,-0.1793,-0.1793,-0.173,-0.1625,-0.1513,-0.1427,-0.1697,-0.1696,-0.1695,0,-0.1741,-0.1756,-0.1773,-0.1803,-0.1809,-0.182,-0.184,-0.1852,-0.1862,-0.1866,-0.1862,-0.1861,-0.1826,-0.1819,-0.1762,-0.1788,-0.1752,-0.1726,-0.1724,-0.1697,-0.1702,-0.1542,-0.1408,-0.1687,-0.1687,-0.1688,-0.1688,0,-0.1714,-0.1747,-0.1759,-0.1769,-0.1804,-0.1814,-0.1832,-0.1851,-0.1855,-0.187,-0.1869,-0.1856,-0.183,-0.1802,-0.1735,-0.1759,-0.1665,-0.1696,-0.1582,-0.1576,-0.1511,-0.15,-0.1648,-0.1648,-0.1648,-0.1649,-0.1649,0,-0.1697,-0.1704,-0.1749,-0.1753,-0.1765,-0.1802,-0.181,-0.1829,-0.1851,-0.1838,-0.1866,-0.1838,-0.1826,-0.1772,-0.1733,-0.1619,-0.166,-0.1558,-0.1546,-0.1462,-0.1448,-0.1722,-0.1731,-0.1646,-0.1646,-0.1647,-0.1647,0,-0.1646,-0.1681,-0.1691,-0.1735,-0.1746,-0.175,-0.1782,-0.1789,-0.1823,-0.1805,-0.1806,-0.181,-0.1733,-0.1697,-0.1628,-0.1588,-0.1513,-0.1464,-0.1348,-0.1323,-0.1434,-0.1439,-0.134,-0.1336,-0.1333,-0.133,-0.1328,0,-0.1615,-0.1618,-0.1656,-0.1661,-0.1675,-0.1694,-0.1703,-0.1754,-0.1755,-0.1762,-0.1739,-0.1691,-0.1615,-0.1491,-0.1405,-0.1305,-0.1388,-0.1169,-0.119,-0.1402,-0.14,-0.141,-0.1419,-0.1043,-0.1038,-0.1035,-0.1032,0,-0.1546,-0.1561,-0.157,-0.1579,-0.159,-0.1596,-0.1613,-0.161,-0.165,-0.1643,-0.1594,-0.1543,-0.1417,-0.1256,-0.1141,-0.1082,-0.1184,-0.1093,-0.1334,-0.1141,-0.1116,-0.1117,-0.1136,-0.1,-0.1004,-0.1006,-0.1008,-0.1009,-0.1479,-0.1467,-0.1478,-0.1472,-0.1484,-0.1463,-0.1426,-0.145,-0.1424,-0.1365,-0.1409,-0.1294,-0.1246,-0.0997,-0.0904,-0.0835,-0.0927,-0.0909,-0.0922,-0.0939,-0.0922,-0.0893,-0.0731,-0.0732,-0.0734,-0.0735,-0.0736,0,-0.1382,-0.1375,-0.1371,-0.1346,-0.13,-0.1345,-0.133,-0.1274,-0.1195,-0.1176,-0.1118,-0.097,-0.0838,-0.079,-0.0618,-0.0579,-0.0602,-0.0568,-0.0611,-0.0641,-0.0668,-0.0641,-0.0373,-0.0372,-0.0371,-0.0371,0,0,-0.133,-0.1284,-0.1276,-0.1154,-0.1134,-0.1035,-0.0996,-0.0945,-0.0911,-0.0815,-0.0759,-0.0795,-0.0778,-0.0599,-0.0532,-0.0423,-0.0537,-0.0396,-0.0683,-0.0764,-0.079,-0.0852,-0.0841,0,0,0,0,0]},{"header":{"parameterUnit":"m.s-1","parameterCategory":2,"la1":30.2991,"la2":30.254,"lo1":-89.0895,"lo2":-89.0444,"dx":0.0017,"dy":0.0017,"nx":28,"ny":28,"refTime":"2023-01-07T03:00:00:Z","depth":"2","parameterNumber":3,"parameterNumberName":"V-component_of_CURRENTS"},"data":[0,0,0,0,0,0,0,0,0,0,0,0,0,0,0,0,0,0,0,0,0,0,0,0,0,0,0,0,0,0,0,0,0,0,0,0,0,0,0,0,0,0,0,0,0,0,0,0,0,0,0,0,0,0,0,0,0,0,-0.0437,-0.0436,0,-0.036,-0.036,-0.0359,-0.0287,-0.0286,-0.0285,-0.0284,-0.0092,-0.0088,-0.0084,0,0,0,0,0,0,0,0,0,0,0,0,0,-0.0459,-0.0459,-0.0437,-0.0436,-0.0435,-0.0361,-0.0359,-0.0358,-0.0287,-0.0286,-0.0285,-0.0284,-0.0094,-0.0089,-0.0083,0,0,0,0,0,0,0,0,0,0,0,0,0,-0.0422,-0.0459,-0.0437,-0.0391,-0.0386,-0.0361,-0.0359,-0.0358,-0.0287,-0.0286,-0.0285,-0.0284,-0.0095,-0.0089,-0.0083,-0.0068,0,0,-0.0063,-0.006,0,0,0,0,0,0,0,0,-0.0425,-0.0422,-0.0398,-0.0394,-0.0388,-0.0332,-0.0297,-0.0256,-0.0288,-0.0324,-0.0284,-0.0283,-0.0163,-0.0151,-0.014,-0.0059,-0.0051,-0.0062,-0.0058,-0.0056,-0.0054,0,0,0,0,0,0,0,-0.0427,-0.0424,-0.0406,-0.0398,-0.0391,-0.0352,-0.0346,-0.0289,-0.0249,-0.0321,-0.0316,-0.0308,-0.0159,-0.0147,-0.0135,-0.0048,-0.0063,-0.0057,-0.0053,-0.005,0.0094,0.0094,0,0,0,0,0,0,-0.0442,-0.0427,-0.0408,-0.0404,-0.0404,-0.0353,-0.0347,-0.0351,-0.0252,-0.0237,-0.031,-0.0305,-0.0159,-0.0143,-0.0128,-0.0085,-0.0056,-0.005,-0.0046,0.0094,0.0094,0.0094,0,0,0,0,0,0,-0.0443,-0.0442,-0.0412,-0.0413,-0.0406,-0.0355,-0.036,-0.035,-0.0335,-0.0245,-0.0227,-0.0304,-0.0157,-0.0137,-0.0082,-0.0077,-0.0047,-0.0041,0.0094,0.0094,0.0094,-0.0011,0,0,0,0,0,0,-0.0445,-0.0443,-0.0449,-0.0415,-0.0407,-0.0399,-0.0361,-0.035,-0.0333,-0.0326,-0.0234,-0.0215,-0.0155,-0.0092,-0.0075,-0.0068,-0.0036,0.0094,0.0094,0.0094,-0.0008,-0.0015,-0.0021,0,0,0,0,0,-0.0446,-0.0456,-0.045,-0.0447,-0.0418,-0.04,-0.0392,-0.035,-0.0334,-0.0331,-0.0273,-0.0218,-0.008,-0.0088,-0.0068,-0.0058,0.0094,0.0094,0.0094,-0.0005,-0.0013,-0.0021,0,0,0,0,0,0,-0.0463,-0.0449,-0.0441,-0.0445,-0.0427,-0.0387,-0.0379,-0.0359,-0.0315,-0.0304,-0.0224,-0.0202,-0.0153,-0.0093,-0.0103,-0.0016,0.0019,0.0023,-0.0063,-0.007,-0.0077,-0.0084,-0.003,0,0,0,0,0,-0.0475,-0.0481,-0.0459,-0.0463,-0.0457,-0.0424,-0.0411,-0.0388,-0.0347,-0.0327,-0.0268,-0.0199,-0.014,-0.0097,-0.004,0.0007,0.0057,0.0029,0.0022,0.0016,0.0025,0.0091,0.009,0.0094,0.0094,0.0094,0,0,-0.0481,-0.0475,-0.0477,-0.0468,-0.0449,-0.0444,-0.0412,-0.0399,-0.0388,-0.0311,-0.0276,-0.0226,-0.0136,-0.0089,-0.0059,-0.0034,0.0036,0.0016,0.001,0.0022,0.009,0.009,0.009,0.0094,0.0094,0.0094,0,0,-0.0498,-0.0496,-0.0506,-0.0498,-0.0481,-0.046,-0.0462,-0.0432,-0.041,-0.038,-0.0323,-0.0273,-0.0185,-0.0122,-0.0076,-0.0082,-0.0011,-0.0063,-0.0088,-0.0026,-0.0025,-0.0024,0.0011,0.0016,-0.0055,-0.0055,-0.0055,0,-0.0505,-0.0519,-0.0505,-0.0511,-0.0503,-0.0473,-0.0477,-0.0454,-0.041,-0.0389,-0.0377,-0.0262,-0.0196,-0.0123,-0.0128,-0.0096,-0.006,-0.007,-0.0036,-0.0034,-0.0031,0.0006,0.0012,-0.006,-0.0059,-0.0059,-0.0058,0,-0.0529,-0.0538,-0.0543,-0.0543,-0.0533,-0.0534,-0.0505,-0.0491,-0.0468,-0.0436,-0.0382,-0.0309,-0.0232,-0.0211,-0.0169,-0.0115,-0.0099,-0.0066,-0.0022,-0.0038,0.0002,0.001,-0.0067,-0.0065,-0.0064,-0.0063,0,0,-0.0551,-0.0559,-0.0561,-0.0568,-0.0552,-0.0548,-0.0531,-0.0503,-0.0485,-0.0446,-0.0411,-0.0332,-0.0298,-0.0245,-0.019,-0.0138,-0.0106,-0.0101,-0.0096,-0.0079,0.0011,0.0026,0.0038,-0.0071,-0.0069,-0.0068,0.0019,0,-0.0573,-0.06,-0.059,-0.0603,-0.0614,-0.0583,-0.0569,-0.0537,-0.0501,-0.0462,-0.0389,-0.0336,-0.0307,-0.0275,-0.0222,-0.0125,-0.0082,-0.0133,0.0036,0.0041,0.0048,0.005,0.0033,0.0111,0.0029,0.003,0.0031,0,-0.0599,-0.0615,-0.064,-0.064,-0.0639,-0.0639,-0.061,-0.0592,-0.0526,-0.0495,-0.0435,-0.0376,-0.0292,-0.0271,-0.0125,-0.0162,-0.0087,-0.0022,-0.0016,0.0048,0.0075,0.0122,0.0131,0.0047,0.0046,0.0045,0.0044,0,-0.0631,-0.0646,-0.0669,-0.0672,-0.0666,-0.0665,-0.0654,-0.0605,-0.0582,-0.0514,-0.0481,-0.0384,-0.0319,-0.022,-0.0092,-0.0104,0.0064,0.0074,0.0154,0.0155,0.0202,0.0205,0.0172,0.0172,0.0172,0.0172,0.0172,0,-0.0662,-0.068,-0.069,-0.0707,-0.0724,-0.0703,-0.0699,-0.0672,-0.0617,-0.058,-0.0502,-0.0442,-0.0301,-0.0188,-0.0092,0.0061,0.0071,0.0154,0.0188,0.0162,0.016,0.0164,0.0161,0.0175,0.0174,0.0174,0.0173,0,-0.0695,-0.0703,-0.0734,-0.0743,-0.0745,-0.0759,-0.074,-0.0729,-0.0674,-0.062,-0.0597,-0.0465,-0.0315,-0.018,0.0003,0.0075,0.021,0.0259,0.0203,0.0228,0.0251,0.0242,0.0352,0.0354,0.0355,0.0356,0.0357,0,-0.0714,-0.0736,-0.0768,-0.0789,-0.0798,-0.0808,-0.081,-0.0767,-0.0743,-0.0628,-0.0596,-0.0442,-0.0324,-0.0067,0.01,0.0272,0.0266,0.034,0.0321,0.0252,0.0274,0.0263,0.0253,0.0331,0.0332,0.0332,0.0332,0,-0.0749,-0.0764,-0.079,-0.0836,-0.0856,-0.0871,-0.0865,-0.0853,-0.0782,-0.0723,-0.061,-0.0507,-0.0239,-0.0033,0.0192,0.0284,0.0307,0.0356,0.0332,0.0282,0.0238,0.0257,0.0247,0.0337,0.0336,0.0336,0.0336,0.0336,-0.077,-0.0801,-0.0839,-0.0877,-0.0905,-0.0929,-0.0932,-0.0903,-0.0864,-0.0752,-0.0647,-0.047,-0.0245,0.0084,0.0247,0.039,0.0382,0.0403,0.0399,0.0395,0.0371,0.0332,0.0442,0.0442,0.0442,0.0442,0.0442,0,-0.0793,-0.0829,-0.0874,-0.0928,-0.0965,-0.0966,-0.0958,-0.0931,-0.0884,-0.0758,-0.0644,-0.0398,-0.0158,0.0074,0.0317,0.045,0.0431,0.0456,0.041,0.0405,0.0401,0.0375,0.0448,0.0448,0.0449,0.0449,0,0,-0.0808,-0.0857,-0.0884,-0.0961,-0.0998,-0.1018,-0.1011,-0.0954,-0.0854,-0.0723,-0.0586,-0.0421,-0.013,0.0035,0.0217,0.0347,0.0332,0.0348,0.0329,0.0248,0.0242,0.0358,0.0311,0,0,0,0,0]}],[{"header":{"parameterUnit":"m.s-1","parameterCategory":2,"la1":30.2991,"la2":30.254,"lo1":-89.0895,"lo2":-89.0444,"dx":0.0017,"dy":0.0017,"nx":28,"ny":28,"refTime":"2023-01-07T03:00:00:Z","depth":"4","parameterNumber":2,"parameterNumberName":"U-component_of_CURRENTS"},"data":[0,0,0,0,0,0,0,0,0,0,0,0,0,0,0,0,0,0,0,0,0,0,0,0,0,0,0,0,0,0,0,0,0,0,0,0,0,0,0,0,0,0,0,0,0,0,0,0,0,0,0,0,0,0,0,0,0,0,-0.1407,-0.1407,0,-0.1487,-0.1488,-0.1489,-0.1571,-0.1572,-0.1573,-0.1575,-0.1547,-0.1545,-0.1543,0,0,0,0,0,0,0,0,0,0,0,0,0,-0.1321,-0.1322,-0.1406,-0.1407,-0.1408,-0.1487,-0.1488,-0.1489,-0.1571,-0.1572,-0.1574,-0.1575,-0.1547,-0.1545,-0.1543,0,0,0,0,0,0,0,0,0,0,0,0,0,-0.1375,-0.1323,-0.1406,-0.1459,-0.1464,-0.1486,-0.1488,-0.1489,-0.1571,-0.1572,-0.1574,-0.1576,-0.1548,-0.1546,-0.1543,-0.1492,0,0,-0.1535,-0.1534,0,0,0,0,0,0,0,0,-0.1372,-0.1379,-0.145,-0.1455,-0.1462,-0.1521,-0.1448,-0.1485,-0.157,-0.153,-0.1575,-0.1577,-0.1527,-0.1526,-0.1539,-0.1491,-0.149,-0.1534,-0.1533,-0.1532,-0.1531,0,0,0,0,0,0,0,-0.1368,-0.1375,-0.1438,-0.1451,-0.1458,-0.1478,-0.1487,-0.1456,-0.1516,-0.1534,-0.154,-0.1549,-0.1529,-0.1541,-0.1538,-0.1489,-0.1535,-0.1532,-0.153,-0.1529,-0.1433,-0.1432,0,0,0,0,0,0,-0.1357,-0.1372,-0.1436,-0.1441,-0.142,-0.1478,-0.1488,-0.15,-0.1519,-0.1524,-0.1547,-0.1552,-0.1545,-0.1542,-0.1538,-0.1547,-0.1532,-0.1529,-0.1528,-0.1434,-0.1433,-0.1432,0,0,0,0,0,0,-0.1355,-0.1362,-0.1432,-0.1408,-0.1418,-0.1477,-0.149,-0.1501,-0.154,-0.153,-0.1534,-0.1578,-0.1546,-0.1541,-0.1537,-0.1544,-0.1528,-0.1526,-0.1435,-0.1433,-0.1432,-0.1521,0,0,0,0,0,0,-0.1352,-0.1361,-0.1377,-0.1407,-0.1419,-0.1456,-0.1488,-0.1501,-0.1541,-0.1549,-0.1557,-0.1555,-0.1547,-0.1541,-0.1534,-0.154,-0.1523,-0.1436,-0.1434,-0.1433,-0.152,-0.1523,-0.1526,0,0,0,0,0,-0.1349,-0.1359,-0.1377,-0.1385,-0.1436,-0.1456,-0.1464,-0.1511,-0.1541,-0.1554,-0.1568,-0.1557,-0.1524,-0.1539,-0.153,-0.1536,-0.1437,-0.1435,-0.1433,-0.1518,-0.1522,-0.1526,0,0,0,0,0,0,-0.1334,-0.1369,-0.139,-0.1412,-0.1437,-0.147,-0.149,-0.1519,-0.1543,-0.1556,-0.1554,-0.1552,-0.1553,-0.1516,-0.1533,-0.1496,-0.1473,-0.1469,-0.154,-0.1544,-0.1547,-0.1536,-0.1521,0,0,0,0,0,-0.1334,-0.1353,-0.1384,-0.1404,-0.1416,-0.1456,-0.1476,-0.1505,-0.1525,-0.1542,-0.1548,-0.1538,-0.1529,-0.152,-0.1503,-0.1478,-0.1451,-0.1468,-0.1472,-0.1475,-0.1456,-0.1451,-0.1453,-0.1424,-0.1424,-0.1425,0,0,-0.1335,-0.1356,-0.137,-0.1402,-0.1427,-0.1447,-0.1473,-0.1504,-0.1525,-0.1526,-0.1556,-0.1557,-0.1527,-0.1521,-0.1513,-0.1497,-0.1466,-0.1473,-0.1477,-0.1455,-0.1449,-0.1452,-0.1455,-0.1423,-0.1423,-0.1424,0,0,-0.1336,-0.1363,-0.1379,-0.1397,-0.1433,-0.1452,-0.1463,-0.1502,-0.1528,-0.1544,-0.1559,-0.1563,-0.1541,-0.1534,-0.1522,-0.1518,-0.1494,-0.1508,-0.1511,-0.1507,-0.151,-0.1513,-0.1485,-0.1484,-0.15,-0.15,-0.15,0,-0.134,-0.1363,-0.1386,-0.1403,-0.1422,-0.1455,-0.1474,-0.1495,-0.1531,-0.1543,-0.1557,-0.1557,-0.1544,-0.1537,-0.1543,-0.1529,-0.1516,-0.1513,-0.1516,-0.1518,-0.1519,-0.149,-0.1488,-0.1504,-0.1504,-0.1503,-0.1503,0,-0.1348,-0.1375,-0.1383,-0.1417,-0.1436,-0.1455,-0.1482,-0.1505,-0.1537,-0.1557,-0.1574,-0.157,-0.1564,-0.1564,-0.1555,-0.1551,-0.1536,-0.1539,-0.152,-0.1528,-0.1495,-0.1492,-0.151,-0.1508,-0.1507,-0.1506,0,0,-0.1333,-0.1382,-0.1388,-0.1409,-0.1446,-0.1461,-0.1486,-0.1513,-0.1537,-0.1562,-0.1584,-0.1581,-0.159,-0.1573,-0.1571,-0.1561,-0.1568,-0.1553,-0.1551,-0.1548,-0.1549,-0.1443,-0.1429,-0.1591,-0.1591,-0.159,-0.1526,0,-0.1337,-0.1372,-0.1394,-0.1429,-0.1447,-0.1478,-0.1498,-0.1525,-0.1551,-0.1574,-0.1576,-0.1592,-0.1589,-0.1599,-0.1593,-0.1577,-0.1562,-0.1584,-0.1519,-0.1516,-0.1441,-0.1422,-0.1589,-0.1523,-0.1522,-0.1522,-0.1521,0,-0.1333,-0.1359,-0.1395,-0.1439,-0.1451,-0.1476,-0.1515,-0.1538,-0.1566,-0.1585,-0.16,-0.1608,-0.1598,-0.1601,-0.1568,-0.1589,-0.1565,-0.1549,-0.1547,-0.1407,-0.1402,-0.1507,-0.1515,-0.1515,-0.1516,-0.1516,-0.1516,0,-0.1303,-0.1356,-0.1387,-0.1403,-0.1455,-0.148,-0.1509,-0.1544,-0.1559,-0.1594,-0.1602,-0.1609,-0.16,-0.1588,-0.1546,-0.1567,-0.1502,-0.1527,-0.1403,-0.1395,-0.1477,-0.1475,-0.1495,-0.1495,-0.1495,-0.1495,-0.1495,0,-0.1281,-0.1309,-0.1383,-0.1397,-0.1429,-0.1475,-0.1507,-0.1536,-0.157,-0.1561,-0.1606,-0.1582,-0.1598,-0.1563,-0.1542,-0.144,-0.1494,-0.138,-0.1366,-0.1513,-0.1516,-0.1475,-0.1473,-0.1493,-0.1493,-0.1494,-0.1494,0,-0.1231,-0.1285,-0.1321,-0.1391,-0.1414,-0.1438,-0.1495,-0.1507,-0.1553,-0.1541,-0.1548,-0.1556,-0.1497,-0.1489,-0.1447,-0.1403,-0.1344,-0.1297,-0.1428,-0.1426,-0.1243,-0.1247,-0.1151,-0.1147,-0.1143,-0.114,-0.1137,0,-0.1204,-0.1222,-0.1304,-0.1324,-0.1358,-0.1405,-0.1423,-0.1485,-0.1481,-0.1494,-0.1462,-0.1435,-0.1418,-0.1265,-0.1286,-0.1224,-0.1215,-0.1186,-0.1231,-0.1209,-0.1206,-0.1215,-0.1224,-0.1131,-0.113,-0.1129,-0.1128,0,-0.1141,-0.1185,-0.1214,-0.1252,-0.1286,-0.1307,-0.1335,-0.1323,-0.136,-0.1422,-0.1327,-0.1283,-0.1206,-0.1168,-0.1119,-0.1086,-0.1212,-0.1147,-0.1156,-0.1197,-0.1184,-0.1187,-0.1199,-0.1115,-0.1117,-0.1119,-0.1119,0,-0.1092,-0.1096,-0.1137,-0.1153,-0.119,-0.1167,-0.121,-0.1185,-0.1188,-0.1211,-0.117,-0.1147,-0.1168,-0.1091,-0.105,-0.1003,-0.0999,-0.0988,-0.1005,-0.102,-0.1008,-0.0974,-0.0805,0,0,0,0,0,-0.103,-0.1015,-0.103,-0.1029,-0.1057,-0.1066,-0.1117,-0.1159,-0.12,-0.1096,-0.1129,-0.105,-0.0974,-0.0979,-0.0899,-0.0996,-0.1009,-0.0903,-0.1009,-0.1043,-0.1058,-0.1058,0,0,0,0,0,0,-0.0985,-0.0997,-0.0987,-0.0904,-0.088,-0.0883,-0.091,-0.0954,-0.0907,-0.0964,-0.0926,-0.098,-0.0923,-0.0978,-0.0867,-0.0869,-0.0915,-0.091,-0.0907,-0.1035,-0.1049,-0.1061,-0.1066,0,0,0,0,0]},{"header":{"parameterUnit":"m.s-1","parameterCategory":2,"la1":30.2991,"la2":30.254,"lo1":-89.0895,"lo2":-89.0444,"dx":0.0017,"dy":0.0017,"nx":28,"ny":28,"refTime":"2023-01-07T03:00:00:Z","depth":"4","parameterNumber":3,"parameterNumberName":"V-component_of_CURRENTS"},"data":[0,0,0,0,0,0,0,0,0,0,0,0,0,0,0,0,0,0,0,0,0,0,0,0,0,0,0,0,0,0,0,0,0,0,0,0,0,0,0,0,0,0,0,0,0,0,0,0,0,0,0,0,0,0,0,0,0,0,-0.0317,-0.0317,0,-0.0267,-0.0266,-0.0265,-0.0222,-0.0221,-0.0221,-0.022,-0.0149,-0.0147,-0.0146,0,0,0,0,0,0,0,0,0,0,0,0,0,-0.0325,-0.0325,-0.0317,-0.0317,-0.0316,-0.0267,-0.0266,-0.0265,-0.0222,-0.0221,-0.022,-0.022,-0.0149,-0.0147,-0.0146,0,0,0,0,0,0,0,0,0,0,0,0,0,-0.0303,-0.0326,-0.0317,-0.0289,-0.0285,-0.0267,-0.0266,-0.0265,-0.0222,-0.0221,-0.022,-0.022,-0.015,-0.0148,-0.0145,-0.0146,0,0,-0.0139,-0.0138,0,0,0,0,0,0,0,0,-0.0304,-0.0302,-0.0293,-0.029,-0.0287,-0.025,-0.0243,-0.0224,-0.0222,-0.0245,-0.022,-0.0219,-0.0181,-0.0177,-0.0168,-0.0142,-0.0139,-0.0138,-0.0137,-0.0136,-0.0136,0,0,0,0,0,0,0,-0.0306,-0.0304,-0.0297,-0.0293,-0.0289,-0.0261,-0.0257,-0.0239,-0.0217,-0.0243,-0.024,-0.0235,-0.0179,-0.0171,-0.0166,-0.0138,-0.0139,-0.0137,-0.0135,-0.0134,-0.0084,-0.0084,0,0,0,0,0,0,-0.0316,-0.0306,-0.0298,-0.0295,-0.0294,-0.0262,-0.0257,-0.0262,-0.0218,-0.0211,-0.0236,-0.0234,-0.0175,-0.0169,-0.0164,-0.0137,-0.0136,-0.0134,-0.0133,-0.0084,-0.0084,-0.0084,0,0,0,0,0,0,-0.0317,-0.0317,-0.03,-0.0299,-0.0295,-0.0263,-0.0268,-0.0262,-0.0255,-0.0213,-0.0205,-0.0236,-0.0174,-0.0167,-0.0134,-0.0135,-0.0133,-0.0131,-0.0084,-0.0084,-0.0084,-0.0099,0,0,0,0,0,0,-0.0318,-0.0317,-0.0325,-0.03,-0.0295,-0.0293,-0.0268,-0.0261,-0.0253,-0.025,-0.021,-0.0203,-0.0173,-0.0137,-0.0132,-0.0132,-0.0129,-0.0084,-0.0084,-0.0084,-0.0099,-0.01,-0.0101,0,0,0,0,0,-0.0318,-0.0327,-0.0326,-0.0324,-0.0307,-0.0293,-0.0288,-0.0262,-0.0254,-0.0253,-0.0215,-0.0204,-0.0134,-0.0135,-0.0128,-0.0128,-0.0084,-0.0084,-0.0084,-0.0099,-0.01,-0.0101,0,0,0,0,0,0,-0.0331,-0.0323,-0.0321,-0.0327,-0.0315,-0.0286,-0.0282,-0.027,-0.0242,-0.0238,-0.0198,-0.0187,-0.0159,-0.0145,-0.0148,-0.0115,-0.011,-0.0109,-0.0123,-0.0124,-0.0125,-0.0135,-0.0128,0,0,0,0,0,-0.034,-0.0348,-0.0333,-0.0339,-0.0336,-0.0315,-0.0307,-0.0292,-0.0264,-0.0252,-0.0226,-0.0193,-0.0156,-0.014,-0.0112,-0.0095,-0.0073,-0.0093,-0.0094,-0.0095,-0.0099,-0.0047,-0.0044,-0.0084,-0.0084,-0.0084,0,0,-0.0346,-0.0344,-0.0348,-0.0343,-0.0332,-0.0324,-0.0308,-0.0301,-0.0289,-0.0249,-0.0228,-0.0196,-0.0152,-0.0123,-0.0111,-0.011,-0.0075,-0.0095,-0.0096,-0.01,-0.0047,-0.0043,-0.0039,-0.0084,-0.0084,-0.0084,0,0,-0.0356,-0.0363,-0.0369,-0.0363,-0.0353,-0.0338,-0.0341,-0.0322,-0.0308,-0.0287,-0.0246,-0.021,-0.0177,-0.0131,-0.0105,-0.0098,-0.008,-0.0103,-0.0115,-0.0065,-0.0061,-0.0057,-0.0036,-0.003,-0.0105,-0.0105,-0.0105,0,-0.0362,-0.037,-0.0367,-0.0367,-0.0361,-0.0348,-0.0345,-0.0329,-0.0301,-0.0287,-0.0285,-0.0212,-0.0175,-0.0118,-0.0112,-0.0098,-0.0082,-0.0112,-0.0065,-0.0061,-0.0056,-0.0036,-0.0029,-0.0106,-0.0106,-0.0105,-0.0105,0,-0.037,-0.0376,-0.038,-0.0377,-0.037,-0.0369,-0.0349,-0.0343,-0.0333,-0.0312,-0.0273,-0.022,-0.0177,-0.0161,-0.0131,-0.0086,-0.0089,-0.0069,-0.0061,-0.0053,-0.0032,-0.0025,-0.0107,-0.0106,-0.0106,-0.0106,0,0,-0.0383,-0.0385,-0.0387,-0.0392,-0.0377,-0.0377,-0.0359,-0.0337,-0.0331,-0.0303,-0.0283,-0.0214,-0.0199,-0.0169,-0.013,-0.0088,-0.0042,-0.0076,-0.0072,-0.0055,0.0045,0.0029,0.0036,-0.0015,-0.0014,-0.0013,0.0043,0,-0.0389,-0.04,-0.0391,-0.0398,-0.0402,-0.0384,-0.0371,-0.0351,-0.0333,-0.0314,-0.0258,-0.0226,-0.0197,-0.0181,-0.0131,-0.0062,-0.0022,-0.006,0.0033,0.0036,0.0023,0.0044,-0.0008,0.0048,0.005,0.0051,0.0052,0,-0.0397,-0.0406,-0.0417,-0.0419,-0.0419,-0.0419,-0.0408,-0.0395,-0.0354,-0.0339,-0.0298,-0.0262,-0.0193,-0.0175,-0.0057,-0.0087,-0.0027,0.0023,0.0028,0.0024,0.0034,0.0042,0.0066,0.0065,0.0064,0.0063,0.0062,0,-0.0419,-0.0423,-0.0438,-0.0439,-0.0436,-0.0439,-0.0436,-0.0408,-0.0402,-0.0361,-0.0352,-0.0271,-0.0234,-0.0145,-0.0047,-0.005,0.0075,0.009,0.0131,0.013,0.0133,0.0129,0.0176,0.0175,0.0175,0.0175,0.0175,0,-0.0428,-0.0444,-0.0457,-0.047,-0.0493,-0.0476,-0.0491,-0.0475,-0.0448,-0.0439,-0.0375,-0.0345,-0.0224,-0.0141,-0.0053,0.0055,0.0075,0.013,0.0151,0.0122,0.0116,0.0138,0.0133,0.0177,0.0177,0.0176,0.0176,0,-0.0451,-0.0456,-0.0486,-0.0499,-0.0509,-0.0532,-0.0542,-0.0548,-0.0515,-0.05,-0.0488,-0.0393,-0.0283,-0.0167,-0.0017,0.0043,0.0151,0.0186,0.0126,0.0142,0.0169,0.0163,0.0234,0.0234,0.0234,0.0234,0.0234,0,-0.0462,-0.0479,-0.0524,-0.0553,-0.0566,-0.0595,-0.0613,-0.0592,-0.0589,-0.0526,-0.0514,-0.0411,-0.0337,-0.0146,-0.0021,0.0139,0.0166,0.0205,0.0206,0.0166,0.0179,0.0172,0.0166,0.0235,0.0235,0.0235,0.0235,0,-0.0486,-0.0511,-0.0539,-0.0601,-0.0637,-0.0671,-0.0688,-0.0686,-0.0647,-0.0617,-0.053,-0.0423,-0.0298,-0.0148,-0.0025,0.0093,0.017,0.0206,0.0207,0.0208,0.0168,0.0179,0.0172,0.0235,0.0235,0.0235,0.0235,0,-0.0512,-0.0545,-0.0591,-0.0641,-0.0694,-0.0728,-0.0732,-0.071,-0.0694,-0.0607,-0.0578,-0.0433,-0.0342,-0.0171,-0.0054,0.0055,0.0085,0.011,0.0116,0.0117,0.0068,-0.0001,0.0035,0,0,0,0,0,-0.0529,-0.0571,-0.0625,-0.0684,-0.0736,-0.0761,-0.0772,-0.0759,-0.0713,-0.0659,-0.0614,-0.0493,-0.0303,-0.0214,-0.0106,-0.0061,0.0092,0.0067,0.0121,0.0236,0.0236,0.0198,0,0,0,0,0,0,-0.0545,-0.0602,-0.0629,-0.0706,-0.0748,-0.0799,-0.0805,-0.0774,-0.073,-0.0667,-0.0562,-0.0486,-0.0299,-0.0369,-0.0111,-0.0075,-0.0031,0.0165,0.0167,0.0236,0.0236,0.0236,0.0197,0,0,0,0,0]}]]